Location: Newark
(43.6583°N, 1.6617°E)
Time: 12:27:16
(UTC+00:00)

Transit 4A - Pass Details

Date: 31 August 2019
Orbit: 865 x 980 km, 66.8° (Epoch: 16 September)

Event Time Altitude Azimuth Distance (km) Brightness Sun altitude
Rises 00:33:49 0° 330° (NNW) 3,630 11.6 -36.8°
Reaches altitude 10° 00:36:26 10° 333° (NNW) 2,665 10.8 -36.7°
Enters shadow 00:40:19 39° 348° (NNW) 1,362 9.0 -36.5°
